Location: Newark
(12.5331°N, 56.4669°W)
Time: 02:37:26
(UTC+00:00)

LightSail 2 - Pass Details

Date: 31 January 2020
Orbit: 698 x 724 km, 24.0° (Epoch: 26 February)

Event Time Altitude Azimuth Distance (km) Brightness Sun altitude
Rises 23:24:49 0° 278° (W) 3,065 9.6 -23.8°
Reaches altitude 10° 23:27:25 10° 269° (W) 2,151 8.6 -24.5°
Maximum altitude 23:31:57 33° 206° (SSW) 1,175 6.5 -25.5°
Enters shadow 23:33:57 24° 165° (SSE) 1,422 6.6 -26.0°
